date,time,pm2.5
01/01/2017,00:00,19
01/01/2017,01:00,18
01/01/2017,02:00,22
01/01/2017,03:00,15
01/01/2017,04:00,12
01/01/2017,05:00,9
01/01/2017,06:00,6
01/01/2017,07:00,6
01/01/2017,08:00,7
01/01/2017,09:00,4
01/01/2017,10:00,4
01/01/2017,11:00,5
01/01/2017,12:00,11
01/01/2017,13:00,8
01/01/2017,14:00,12
01/01/2017,15:00,16
01/01/2017,16:00,29
01/01/2017,17:00,11
01/01/2017,18:00,21
01/01/2017,19:00,15
01/01/2017,20:00,16
01/01/2017,21:00,13
01/01/2017,22:00,16
01/01/2017,23:00,15
02/01/2017,00:00,13
02/01/2017,01:00,11
02/01/2017,02:00,10
02/01/2017,03:00,7
02/01/2017,04:00,11
02/01/2017,05:00,12
02/01/2017,06:00,8
02/01/2017,07:00,9
02/01/2017,08:00,9
02/01/2017,09:00,12
02/01/2017,10:00,16
02/01/2017,11:00,20
02/01/2017,12:00,19
02/01/2017,13:00,15
02/01/2017,14:00,13
02/01/2017,15:00,15
02/01/2017,16:00,18
02/01/2017,17:00,31
02/01/2017,18:00,37
02/01/2017,19:00,48
02/01/2017,20:00,62
02/01/2017,21:00,35
02/01/2017,22:00,23
02/01/2017,23:00,17
03/01/2017,00:00,22
03/01/2017,01:00,19
03/01/2017,02:00,10
03/01/2017,03:00,8
03/01/2017,04:00,7
03/01/2017,05:00,11
03/01/2017,06:00,13
03/01/2017,07:00,8
03/01/2017,08:00,6
03/01/2017,09:00,9
03/01/2017,10:00,6
03/01/2017,11:00,9
03/01/2017,12:00,9
03/01/2017,13:00,10
03/01/2017,14:00,9
03/01/2017,15:00,8
03/01/2017,16:00,11
03/01/2017,17:00,12
03/01/2017,18:00,12
03/01/2017,19:00,10
03/01/2017,20:00,11
03/01/2017,21:00,9
03/01/2017,22:00,10
03/01/2017,23:00,12
04/01/2017,00:00,8
04/01/2017,01:00,5
04/01/2017,02:00,6
04/01/2017,03:00,7
04/01/2017,04:00,7
04/01/2017,05:00,6
04/01/2017,06:00,7
04/01/2017,07:00,9
04/01/2017,08:00,12
04/01/2017,09:00,16
04/01/2017,10:00,11
04/01/2017,11:00,12
04/01/2017,12:00,12
04/01/2017,13:00,12
04/01/2017,14:00,13
04/01/2017,15:00,15
04/01/2017,16:00,15
04/01/2017,17:00,20
04/01/2017,18:00,15
04/01/2017,19:00,32
04/01/2017,20:00,45
04/01/2017,21:00,34
04/01/2017,22:00,23
04/01/2017,23:00,22
05/01/2017,00:00,14
05/01/2017,01:00,12
05/01/2017,02:00,10
05/01/2017,03:00,7
05/01/2017,04:00,7
05/01/2017,05:00,6
05/01/2017,06:00,6
05/01/2017,07:00,9
05/01/2017,08:00,15
05/01/2017,09:00,17
05/01/2017,10:00,20
05/01/2017,11:00,16
05/01/2017,12:00,24
05/01/2017,13:00,28
05/01/2017,14:00,41
05/01/2017,15:00,34
05/01/2017,16:00,42
05/01/2017,17:00,44
05/01/2017,18:00,54
05/01/2017,19:00,53
05/01/2017,20:00,54
05/01/2017,21:00,55
05/01/2017,22:00,55
05/01/2017,23:00,48
06/01/2017,00:00,22
06/01/2017,01:00,14
06/01/2017,02:00,13
06/01/2017,03:00,13
06/01/2017,04:00,15
06/01/2017,05:00,19
06/01/2017,06:00,18
06/01/2017,07:00,20
06/01/2017,08:00,19
06/01/2017,09:00,18
06/01/2017,10:00,27
06/01/2017,11:00,26
06/01/2017,12:00,21
06/01/2017,13:00,21
06/01/2017,14:00,25
06/01/2017,15:00,17
06/01/2017,16:00,19
06/01/2017,17:00,17
06/01/2017,18:00,24
06/01/2017,19:00,18
06/01/2017,20:00,18
06/01/2017,21:00,16
06/01/2017,22:00,15
06/01/2017,23:00,13
07/01/2017,00:00,18
07/01/2017,01:00,15
07/01/2017,02:00,12
07/01/2017,03:00,11
07/01/2017,04:00,12
07/01/2017,05:00,10
07/01/2017,06:00,13
07/01/2017,07:00,18
07/01/2017,08:00,18
07/01/2017,09:00,19
07/01/2017,10:00,21
07/01/2017,11:00,12
07/01/2017,12:00,15
07/01/2017,13:00,9
07/01/2017,14:00,9
07/01/2017,15:00,11
07/01/2017,16:00,19
07/01/2017,17:00,22
07/01/2017,18:00,19
07/01/2017,19:00,24
07/01/2017,20:00,21
07/01/2017,21:00,21
07/01/2017,22:00,17
07/01/2017,23:00,15
08/01/2017,00:00,12
08/01/2017,01:00,10
08/01/2017,02:00,12
08/01/2017,03:00,8
08/01/2017,04:00,5
08/01/2017,05:00,8
08/01/2017,06:00,12
08/01/2017,07:00,10
08/01/2017,08:00,10
08/01/2017,09:00,10
08/01/2017,10:00,15
08/01/2017,11:00,22
08/01/2017,12:00,14
08/01/2017,13:00,12
08/01/2017,14:00,16
08/01/2017,15:00,13
08/01/2017,16:00,16
08/01/2017,17:00,11
08/01/2017,18:00,20
08/01/2017,19:00,19
08/01/2017,20:00,12
08/01/2017,21:00,20
08/01/2017,22:00,24
08/01/2017,23:00,18
09/01/2017,00:00,10
09/01/2017,01:00,13
09/01/2017,02:00,14
09/01/2017,03:00,13
09/01/2017,04:00,8
09/01/2017,05:00,4
09/01/2017,06:00,3
09/01/2017,07:00,7
09/01/2017,08:00,12
09/01/2017,09:00,14
09/01/2017,10:00,16
09/01/2017,11:00,10
09/01/2017,12:00,11
09/01/2017,13:00,9
09/01/2017,14:00,15
09/01/2017,15:00,11
09/01/2017,16:00,16
09/01/2017,17:00,14
09/01/2017,18:00,14
09/01/2017,19:00,15
09/01/2017,20:00,11
09/01/2017,21:00,11
09/01/2017,22:00,12
09/01/2017,23:00,16
10/01/2017,00:00,10
10/01/2017,01:00,11
10/01/2017,02:00,11
10/01/2017,03:00,14
10/01/2017,04:00,10
10/01/2017,05:00,8
10/01/2017,06:00,8
10/01/2017,07:00,7
10/01/2017,08:00,8
10/01/2017,09:00,11
10/01/2017,10:00,7
10/01/2017,11:00,9
10/01/2017,12:00,15
10/01/2017,13:00,15
10/01/2017,14:00,23
10/01/2017,15:00,15
10/01/2017,16:00,12
10/01/2017,17:00,17
10/01/2017,18:00,19
10/01/2017,19:00,19
10/01/2017,20:00,17
10/01/2017,21:00,25
10/01/2017,22:00,25
10/01/2017,23:00,22
11/01/2017,00:00,20
11/01/2017,01:00,20
11/01/2017,02:00,8
11/01/2017,03:00,5
11/01/2017,04:00,9
11/01/2017,05:00,9
11/01/2017,06:00,15
11/01/2017,07:00,15
11/01/2017,08:00,14
11/01/2017,09:00,14
11/01/2017,10:00,13
11/01/2017,11:00,15
11/01/2017,12:00,12
11/01/2017,13:00,14
11/01/2017,14:00,15
11/01/2017,15:00,13
11/01/2017,16:00,13
11/01/2017,17:00,16
11/01/2017,18:00,14
11/01/2017,19:00,13
11/01/2017,20:00,14
11/01/2017,21:00,12
11/01/2017,22:00,14
11/01/2017,23:00,13
12/01/2017,00:00,9
12/01/2017,01:00,9
12/01/2017,02:00,8
12/01/2017,03:00,8
12/01/2017,04:00,7
12/01/2017,05:00,6
12/01/2017,06:00,4
12/01/2017,07:00,3
12/01/2017,08:00,6
12/01/2017,09:00,8
12/01/2017,10:00,10
12/01/2017,11:00,9
12/01/2017,12:00,10
12/01/2017,13:00,12
12/01/2017,14:00,13
12/01/2017,15:00,15
12/01/2017,16:00,19
12/01/2017,17:00,17
12/01/2017,18:00,26
12/01/2017,19:00,10
12/01/2017,20:00,15
12/01/2017,21:00,16
12/01/2017,22:00,10
12/01/2017,23:00,15
13/01/2017,00:00,9
13/01/2017,01:00,9
13/01/2017,02:00,8
13/01/2017,03:00,7
13/01/2017,04:00,4
13/01/2017,05:00,6
13/01/2017,06:00,6
13/01/2017,07:00,3
13/01/2017,08:00,7
13/01/2017,09:00,10
13/01/2017,10:00,10
13/01/2017,11:00,8
13/01/2017,12:00,11
13/01/2017,13:00,11
13/01/2017,14:00,12
13/01/2017,15:00,12
13/01/2017,16:00,8
13/01/2017,17:00,12
13/01/2017,18:00,13
13/01/2017,19:00,19
13/01/2017,20:00,10
13/01/2017,21:00,18
13/01/2017,22:00,13
13/01/2017,23:00,20
14/01/2017,00:00,15
14/01/2017,01:00,9
14/01/2017,02:00,8
14/01/2017,03:00,10
14/01/2017,04:00,9
14/01/2017,05:00,7
14/01/2017,06:00,9
14/01/2017,07:00,9
14/01/2017,08:00,7
14/01/2017,09:00,16
14/01/2017,10:00,10
14/01/2017,11:00,12
14/01/2017,12:00,12
14/01/2017,13:00,10
14/01/2017,14:00,16
14/01/2017,15:00,11
14/01/2017,16:00,19
14/01/2017,17:00,15
14/01/2017,18:00,19
14/01/2017,19:00,27
14/01/2017,20:00,32
14/01/2017,21:00,31
14/01/2017,22:00,32
14/01/2017,23:00,35
15/01/2017,00:00,34
15/01/2017,01:00,26
15/01/2017,02:00,23
15/01/2017,03:00,18
15/01/2017,04:00,9
15/01/2017,05:00,8
15/01/2017,06:00,6
15/01/2017,07:00,5
15/01/2017,08:00,5
15/01/2017,09:00,7
15/01/2017,10:00,7
15/01/2017,11:00,7
15/01/2017,12:00,8
15/01/2017,13:00,11
15/01/2017,14:00,9
15/01/2017,15:00,9
15/01/2017,16:00,13
15/01/2017,17:00,20
15/01/2017,18:00,15
15/01/2017,19:00,15
15/01/2017,20:00,21
15/01/2017,21:00,31
15/01/2017,22:00,19
15/01/2017,23:00,21
16/01/2017,00:00,14
16/01/2017,01:00,17
16/01/2017,02:00,17
16/01/2017,03:00,13
16/01/2017,04:00,13
16/01/2017,05:00,8
16/01/2017,06:00,9
16/01/2017,07:00,16
16/01/2017,08:00,14
16/01/2017,09:00,18
16/01/2017,10:00,21
16/01/2017,11:00,18
16/01/2017,12:00,17
16/01/2017,13:00,24
16/01/2017,14:00,16
16/01/2017,15:00,17
16/01/2017,16:00,23
16/01/2017,17:00,31
16/01/2017,18:00,31
16/01/2017,19:00,31
16/01/2017,20:00,32
16/01/2017,21:00,28
16/01/2017,22:00,32
16/01/2017,23:00,26
17/01/2017,00:00,19
17/01/2017,01:00,20
17/01/2017,02:00,21
17/01/2017,03:00,15
17/01/2017,04:00,20
17/01/2017,05:00,16
17/01/2017,06:00,18
17/01/2017,07:00,16
17/01/2017,08:00,24
17/01/2017,09:00,23
17/01/2017,10:00,16
17/01/2017,11:00,15
17/01/2017,12:00,18
17/01/2017,13:00,16
17/01/2017,14:00,20
17/01/2017,15:00,16
17/01/2017,16:00,18
17/01/2017,17:00,25
17/01/2017,18:00,27
17/01/2017,19:00,27
17/01/2017,20:00,18
17/01/2017,21:00,18
17/01/2017,22:00,21
17/01/2017,23:00,15
18/01/2017,00:00,15
18/01/2017,01:00,13
18/01/2017,02:00,11
18/01/2017,03:00,7
18/01/2017,04:00,10
18/01/2017,05:00,10
18/01/2017,06:00,11
18/01/2017,07:00,15
18/01/2017,08:00,18
18/01/2017,09:00,19
18/01/2017,10:00,19
18/01/2017,11:00,17
18/01/2017,12:00,16
18/01/2017,13:00,16
18/01/2017,14:00,15
18/01/2017,15:00,15
18/01/2017,16:00,20
18/01/2017,17:00,22
18/01/2017,18:00,24
18/01/2017,19:00,29
18/01/2017,20:00,28
18/01/2017,21:00,19
18/01/2017,22:00,18
18/01/2017,23:00,16
19/01/2017,00:00,11
19/01/2017,01:00,16
19/01/2017,02:00,9
19/01/2017,03:00,12
19/01/2017,04:00,9
19/01/2017,05:00,11
19/01/2017,06:00,12
19/01/2017,07:00,14
19/01/2017,08:00,18
19/01/2017,09:00,InVld
19/01/2017,10:00,18
19/01/2017,11:00,21
19/01/2017,12:00,18
19/01/2017,13:00,15
19/01/2017,14:00,13
19/01/2017,15:00,19
19/01/2017,16:00,26
19/01/2017,17:00,23
19/01/2017,18:00,25
19/01/2017,19:00,18
19/01/2017,20:00,21
19/01/2017,21:00,17
19/01/2017,22:00,23
19/01/2017,23:00,16
20/01/2017,00:00,19
20/01/2017,01:00,16
20/01/2017,02:00,14
20/01/2017,03:00,22
20/01/2017,04:00,11
20/01/2017,05:00,10
20/01/2017,06:00,13
20/01/2017,07:00,15
20/01/2017,08:00,18
20/01/2017,09:00,21
20/01/2017,10:00,17
20/01/2017,11:00,22
20/01/2017,12:00,25
20/01/2017,13:00,20
20/01/2017,14:00,21
20/01/2017,15:00,30
20/01/2017,16:00,30
20/01/2017,17:00,30
20/01/2017,18:00,37
20/01/2017,19:00,49
20/01/2017,20:00,48
20/01/2017,21:00,47
20/01/2017,22:00,47
20/01/2017,23:00,39
21/01/2017,00:00,39
21/01/2017,01:00,31
21/01/2017,02:00,31
21/01/2017,03:00,22
21/01/2017,04:00,19
21/01/2017,05:00,23
21/01/2017,06:00,19
21/01/2017,07:00,20
21/01/2017,08:00,19
21/01/2017,09:00,21
21/01/2017,10:00,16
21/01/2017,11:00,20
21/01/2017,12:00,20
21/01/2017,13:00,23
21/01/2017,14:00,30
21/01/2017,15:00,28
21/01/2017,16:00,27
21/01/2017,17:00,16
21/01/2017,18:00,22
21/01/2017,19:00,19
21/01/2017,20:00,24
21/01/2017,21:00,23
21/01/2017,22:00,25
21/01/2017,23:00,23
22/01/2017,00:00,18
22/01/2017,01:00,17
22/01/2017,02:00,21
22/01/2017,03:00,23
22/01/2017,04:00,19
22/01/2017,05:00,32
22/01/2017,06:00,35
22/01/2017,07:00,34
22/01/2017,08:00,36
22/01/2017,09:00,41
22/01/2017,10:00,46
22/01/2017,11:00,40
22/01/2017,12:00,46
22/01/2017,13:00,44
22/01/2017,14:00,52
22/01/2017,15:00,58
22/01/2017,16:00,52
22/01/2017,17:00,55
22/01/2017,18:00,62
22/01/2017,19:00,64
22/01/2017,20:00,67
22/01/2017,21:00,62
22/01/2017,22:00,53
22/01/2017,23:00,45
23/01/2017,00:00,40
23/01/2017,01:00,44
23/01/2017,02:00,48
23/01/2017,03:00,37
23/01/2017,04:00,34
23/01/2017,05:00,35
23/01/2017,06:00,28
23/01/2017,07:00,27
23/01/2017,08:00,25
23/01/2017,09:00,20
23/01/2017,10:00,29
23/01/2017,11:00,35
23/01/2017,12:00,31
23/01/2017,13:00,37
23/01/2017,14:00,37
23/01/2017,15:00,35
23/01/2017,16:00,44
23/01/2017,17:00,43
23/01/2017,18:00,50
23/01/2017,19:00,55
23/01/2017,20:00,67
23/01/2017,21:00,76
23/01/2017,22:00,66
23/01/2017,23:00,36
24/01/2017,00:00,38
24/01/2017,01:00,26
24/01/2017,02:00,27
24/01/2017,03:00,31
24/01/2017,04:00,31
24/01/2017,05:00,31
24/01/2017,06:00,28
24/01/2017,07:00,32
24/01/2017,08:00,33
24/01/2017,09:00,43
24/01/2017,10:00,50
24/01/2017,11:00,45
24/01/2017,12:00,26
24/01/2017,13:00,24
24/01/2017,14:00,28
24/01/2017,15:00,33
24/01/2017,16:00,32
24/01/2017,17:00,35
24/01/2017,18:00,41
24/01/2017,19:00,39
24/01/2017,20:00,36
24/01/2017,21:00,33
24/01/2017,22:00,40
24/01/2017,23:00,40
25/01/2017,00:00,27
25/01/2017,01:00,18
25/01/2017,02:00,17
25/01/2017,03:00,13
25/01/2017,04:00,22
25/01/2017,05:00,20
25/01/2017,06:00,21
25/01/2017,07:00,18
25/01/2017,08:00,22
25/01/2017,09:00,26
25/01/2017,10:00,26
25/01/2017,11:00,21
25/01/2017,12:00,18
25/01/2017,13:00,17
25/01/2017,14:00,18
25/01/2017,15:00,22
25/01/2017,16:00,17
25/01/2017,17:00,24
25/01/2017,18:00,28
25/01/2017,19:00,22
25/01/2017,20:00,26
25/01/2017,21:00,37
25/01/2017,22:00,34
25/01/2017,23:00,22
26/01/2017,00:00,27
26/01/2017,01:00,29
26/01/2017,02:00,35
26/01/2017,03:00,30
26/01/2017,04:00,26
26/01/2017,05:00,20
26/01/2017,06:00,20
26/01/2017,07:00,18
26/01/2017,08:00,35
26/01/2017,09:00,48
26/01/2017,10:00,47
26/01/2017,11:00,55
26/01/2017,12:00,55
26/01/2017,13:00,54
26/01/2017,14:00,54
26/01/2017,15:00,59
26/01/2017,16:00,52
26/01/2017,17:00,48
26/01/2017,18:00,43
26/01/2017,19:00,37
26/01/2017,20:00,39
26/01/2017,21:00,42
26/01/2017,22:00,45
26/01/2017,23:00,45
27/01/2017,00:00,49
27/01/2017,01:00,47
27/01/2017,02:00,46
27/01/2017,03:00,44
27/01/2017,04:00,48
27/01/2017,05:00,53
27/01/2017,06:00,56
27/01/2017,07:00,57
27/01/2017,08:00,58
27/01/2017,09:00,56
27/01/2017,10:00,63
27/01/2017,11:00,60
27/01/2017,12:00,62
27/01/2017,13:00,68
27/01/2017,14:00,64
27/01/2017,15:00,66
27/01/2017,16:00,65
27/01/2017,17:00,44
27/01/2017,18:00,57
27/01/2017,19:00,51
27/01/2017,20:00,46
27/01/2017,21:00,48
27/01/2017,22:00,44
27/01/2017,23:00,41
28/01/2017,00:00,31
28/01/2017,01:00,33
28/01/2017,02:00,31
28/01/2017,03:00,30
28/01/2017,04:00,26
28/01/2017,05:00,26
28/01/2017,06:00,32
28/01/2017,07:00,32
28/01/2017,08:00,27
28/01/2017,09:00,25
28/01/2017,10:00,32
28/01/2017,11:00,40
28/01/2017,12:00,15
28/01/2017,13:00,13
28/01/2017,14:00,17
28/01/2017,15:00,15
28/01/2017,16:00,12
28/01/2017,17:00,11
28/01/2017,18:00,28
28/01/2017,19:00,26
28/01/2017,20:00,37
28/01/2017,21:00,27
28/01/2017,22:00,29
28/01/2017,23:00,35
29/01/2017,00:00,35
29/01/2017,01:00,27
29/01/2017,02:00,15
29/01/2017,03:00,12
29/01/2017,04:00,19
29/01/2017,05:00,20
29/01/2017,06:00,17
29/01/2017,07:00,22
29/01/2017,08:00,27
29/01/2017,09:00,21
29/01/2017,10:00,11
29/01/2017,11:00,12
29/01/2017,12:00,14
29/01/2017,13:00,17
29/01/2017,14:00,12
29/01/2017,15:00,15
29/01/2017,16:00,18
29/01/2017,17:00,22
29/01/2017,18:00,30
29/01/2017,19:00,35
29/01/2017,20:00,32
29/01/2017,21:00,28
29/01/2017,22:00,40
29/01/2017,23:00,34
30/01/2017,00:00,33
30/01/2017,01:00,23
30/01/2017,02:00,18
30/01/2017,03:00,20
30/01/2017,04:00,17
30/01/2017,05:00,18
30/01/2017,06:00,18
30/01/2017,07:00,17
30/01/2017,08:00,25
30/01/2017,09:00,27
30/01/2017,10:00,33
30/01/2017,11:00,36
30/01/2017,12:00,40
30/01/2017,13:00,37
30/01/2017,14:00,28
30/01/2017,15:00,26
30/01/2017,16:00,23
30/01/2017,17:00,22
30/01/2017,18:00,21
30/01/2017,19:00,23
30/01/2017,20:00,20
30/01/2017,21:00,17
30/01/2017,22:00,13
30/01/2017,23:00,16
31/01/2017,00:00,18
31/01/2017,01:00,18
31/01/2017,02:00,17
31/01/2017,03:00,15
31/01/2017,04:00,13
31/01/2017,05:00,13
31/01/2017,06:00,11
31/01/2017,07:00,15
31/01/2017,08:00,12
31/01/2017,09:00,13
31/01/2017,10:00,16
31/01/2017,11:00,14
31/01/2017,12:00,14
31/01/2017,13:00,18
31/01/2017,14:00,17
31/01/2017,15:00,20
31/01/2017,16:00,33
31/01/2017,17:00,28
31/01/2017,18:00,41
31/01/2017,19:00,41
31/01/2017,20:00,35
31/01/2017,21:00,36
31/01/2017,22:00,33
31/01/2017,23:00,30
01/02/2017,00:00,20
01/02/2017,01:00,18
01/02/2017,02:00,18
01/02/2017,03:00,16
01/02/2017,04:00,16
01/02/2017,05:00,17
01/02/2017,06:00,21
01/02/2017,07:00,16
01/02/2017,08:00,17
01/02/2017,09:00,23
01/02/2017,10:00,24
01/02/2017,11:00,26
01/02/2017,12:00,13
01/02/2017,13:00,19
01/02/2017,14:00,12
01/02/2017,15:00,9
01/02/2017,16:00,16
01/02/2017,17:00,18
01/02/2017,18:00,21
01/02/2017,19:00,21
01/02/2017,20:00,10
01/02/2017,21:00,11
01/02/2017,22:00,11
01/02/2017,23:00,12
02/02/2017,00:00,12
02/02/2017,01:00,15
02/02/2017,02:00,11
02/02/2017,03:00,14
02/02/2017,04:00,9
02/02/2017,05:00,11
02/02/2017,06:00,9
02/02/2017,07:00,14
02/02/2017,08:00,10
02/02/2017,09:00,9
02/02/2017,10:00,14
02/02/2017,11:00,12
02/02/2017,12:00,12
02/02/2017,13:00,17
02/02/2017,14:00,17
02/02/2017,15:00,11
02/02/2017,16:00,11
02/02/2017,17:00,18
02/02/2017,18:00,19
02/02/2017,19:00,19
02/02/2017,20:00,21
02/02/2017,21:00,17
02/02/2017,22:00,13
02/02/2017,23:00,13
03/02/2017,00:00,14
03/02/2017,01:00,11
03/02/2017,02:00,16
03/02/2017,03:00,7
03/02/2017,04:00,10
03/02/2017,05:00,14
03/02/2017,06:00,16
03/02/2017,07:00,13
03/02/2017,08:00,13
03/02/2017,09:00,16
03/02/2017,10:00,21
03/02/2017,11:00,13
03/02/2017,12:00,14
03/02/2017,13:00,20
03/02/2017,14:00,19
03/02/2017,15:00,12
03/02/2017,16:00,14
03/02/2017,17:00,20
03/02/2017,18:00,16
03/02/2017,19:00,18
03/02/2017,20:00,24
03/02/2017,21:00,22
03/02/2017,22:00,24
03/02/2017,23:00,21
04/02/2017,00:00,14
04/02/2017,01:00,11
04/02/2017,02:00,12
04/02/2017,03:00,8
04/02/2017,04:00,6
04/02/2017,05:00,7
04/02/2017,06:00,13
04/02/2017,07:00,14
04/02/2017,08:00,16
04/02/2017,09:00,12
04/02/2017,10:00,14
04/02/2017,11:00,14
04/02/2017,12:00,11
04/02/2017,13:00,14
04/02/2017,14:00,14
04/02/2017,15:00,15
04/02/2017,16:00,13
04/02/2017,17:00,22
04/02/2017,18:00,30
04/02/2017,19:00,40
04/02/2017,20:00,43
04/02/2017,21:00,53
04/02/2017,22:00,48
04/02/2017,23:00,44
05/02/2017,00:00,39
05/02/2017,01:00,31
05/02/2017,02:00,24
05/02/2017,03:00,25
05/02/2017,04:00,22
05/02/2017,05:00,27
05/02/2017,06:00,23
05/02/2017,07:00,26
05/02/2017,08:00,24
05/02/2017,09:00,26
05/02/2017,10:00,31
05/02/2017,11:00,30
05/02/2017,12:00,21
05/02/2017,13:00,14
05/02/2017,14:00,14
05/02/2017,15:00,13
05/02/2017,16:00,13
05/02/2017,17:00,16
05/02/2017,18:00,26
05/02/2017,19:00,31
05/02/2017,20:00,34
05/02/2017,21:00,38
05/02/2017,22:00,37
05/02/2017,23:00,35
06/02/2017,00:00,32
06/02/2017,01:00,31
06/02/2017,02:00,29
06/02/2017,03:00,29
06/02/2017,04:00,27
06/02/2017,05:00,26
06/02/2017,06:00,23
06/02/2017,07:00,27
06/02/2017,08:00,35
06/02/2017,09:00,27
06/02/2017,10:00,33
06/02/2017,11:00,31
06/02/2017,12:00,27
06/02/2017,13:00,29
06/02/2017,14:00,17
06/02/2017,15:00,21
06/02/2017,16:00,18
06/02/2017,17:00,22
06/02/2017,18:00,18
06/02/2017,19:00,25
06/02/2017,20:00,22
06/02/2017,21:00,21
06/02/2017,22:00,13
06/02/2017,23:00,14
07/02/2017,00:00,11
07/02/2017,01:00,12
07/02/2017,02:00,9
07/02/2017,03:00,8
07/02/2017,04:00,10
07/02/2017,05:00,10
07/02/2017,06:00,10
07/02/2017,07:00,13
07/02/2017,08:00,19
07/02/2017,09:00,20
07/02/2017,10:00,21
07/02/2017,11:00,20
07/02/2017,12:00,26
07/02/2017,13:00,17
07/02/2017,14:00,10
07/02/2017,15:00,16
07/02/2017,16:00,12
07/02/2017,17:00,27
07/02/2017,18:00,27
07/02/2017,19:00,29
07/02/2017,20:00,33
07/02/2017,21:00,31
07/02/2017,22:00,32
07/02/2017,23:00,29
08/02/2017,00:00,24
08/02/2017,01:00,18
08/02/2017,02:00,17
08/02/2017,03:00,11
08/02/2017,04:00,15
08/02/2017,05:00,10
08/02/2017,06:00,17
08/02/2017,07:00,24
08/02/2017,08:00,31
08/02/2017,09:00,29
08/02/2017,10:00,22
08/02/2017,11:00,38
08/02/2017,12:00,27
08/02/2017,13:00,28
08/02/2017,14:00,35
08/02/2017,15:00,25
08/02/2017,16:00,25
08/02/2017,17:00,26
08/02/2017,18:00,27
08/02/2017,19:00,34
08/02/2017,20:00,25
08/02/2017,21:00,26
08/02/2017,22:00,24
08/02/2017,23:00,19
09/02/2017,00:00,20
09/02/2017,01:00,18
09/02/2017,02:00,20
09/02/2017,03:00,18
09/02/2017,04:00,20
09/02/2017,05:00,17
09/02/2017,06:00,16
09/02/2017,07:00,16
09/02/2017,08:00,16
09/02/2017,09:00,21
09/02/2017,10:00,20
09/02/2017,11:00,23
09/02/2017,12:00,27
09/02/2017,13:00,23
09/02/2017,14:00,20
09/02/2017,15:00,24
09/02/2017,16:00,23
09/02/2017,17:00,24
09/02/2017,18:00,31
09/02/2017,19:00,26
09/02/2017,20:00,26
09/02/2017,21:00,23
09/02/2017,22:00,23
09/02/2017,23:00,22
10/02/2017,00:00,19
10/02/2017,01:00,19
10/02/2017,02:00,14
10/02/2017,03:00,14
10/02/2017,04:00,11
10/02/2017,05:00,13
10/02/2017,06:00,14
10/02/2017,07:00,20
10/02/2017,08:00,19
10/02/2017,09:00,22
10/02/2017,10:00,18
10/02/2017,11:00,19
10/02/2017,12:00,17
10/02/2017,13:00,22
10/02/2017,14:00,17
10/02/2017,15:00,20
10/02/2017,16:00,18
10/02/2017,17:00,22
10/02/2017,18:00,26
10/02/2017,19:00,24
10/02/2017,20:00,27
10/02/2017,21:00,16
10/02/2017,22:00,16
10/02/2017,23:00,11
11/02/2017,00:00,9
11/02/2017,01:00,10
11/02/2017,02:00,13
11/02/2017,03:00,11
11/02/2017,04:00,8
11/02/2017,05:00,10
11/02/2017,06:00,11
11/02/2017,07:00,9
11/02/2017,08:00,16
11/02/2017,09:00,15
11/02/2017,10:00,19
11/02/2017,11:00,24
11/02/2017,12:00,27
11/02/2017,13:00,21
11/02/2017,14:00,27
11/02/2017,15:00,21
11/02/2017,16:00,21
11/02/2017,17:00,26
11/02/2017,18:00,24
11/02/2017,19:00,27
11/02/2017,20:00,30
11/02/2017,21:00,19
11/02/2017,22:00,25
11/02/2017,23:00,15
12/02/2017,00:00,14
12/02/2017,01:00,13
12/02/2017,02:00,11
12/02/2017,03:00,13
12/02/2017,04:00,15
12/02/2017,05:00,16
12/02/2017,06:00,12
12/02/2017,07:00,10
12/02/2017,08:00,12
12/02/2017,09:00,11
12/02/2017,10:00,13
12/02/2017,11:00,13
12/02/2017,12:00,13
12/02/2017,13:00,14
12/02/2017,14:00,15
12/02/2017,15:00,17
12/02/2017,16:00,25
12/02/2017,17:00,28
12/02/2017,18:00,32
12/02/2017,19:00,47
12/02/2017,20:00,51
12/02/2017,21:00,49
12/02/2017,22:00,45
12/02/2017,23:00,50
13/02/2017,00:00,54
13/02/2017,01:00,58
13/02/2017,02:00,55
13/02/2017,03:00,50
13/02/2017,04:00,47
13/02/2017,05:00,45
13/02/2017,06:00,45
13/02/2017,07:00,45
13/02/2017,08:00,47
13/02/2017,09:00,52
13/02/2017,10:00,48
13/02/2017,11:00,54
13/02/2017,12:00,48
13/02/2017,13:00,52
13/02/2017,14:00,49
13/02/2017,15:00,50
13/02/2017,16:00,50
13/02/2017,17:00,50
13/02/2017,18:00,59
13/02/2017,19:00,50
13/02/2017,20:00,50
13/02/2017,21:00,49
13/02/2017,22:00,56
13/02/2017,23:00,56
14/02/2017,00:00,61
14/02/2017,01:00,54
14/02/2017,02:00,53
14/02/2017,03:00,53
14/02/2017,04:00,51
14/02/2017,05:00,48
14/02/2017,06:00,52
14/02/2017,07:00,48
14/02/2017,08:00,51
14/02/2017,09:00,55
14/02/2017,10:00,51
14/02/2017,11:00,48
14/02/2017,12:00,55
14/02/2017,13:00,50
14/02/2017,14:00,49
14/02/2017,15:00,50
14/02/2017,16:00,52
14/02/2017,17:00,53
14/02/2017,18:00,55
14/02/2017,19:00,56
14/02/2017,20:00,59
14/02/2017,21:00,55
14/02/2017,22:00,54
14/02/2017,23:00,55
15/02/2017,00:00,52
15/02/2017,01:00,49
15/02/2017,02:00,45
15/02/2017,03:00,46
15/02/2017,04:00,44
15/02/2017,05:00,48
15/02/2017,06:00,42
15/02/2017,07:00,34
15/02/2017,08:00,26
15/02/2017,09:00,37
15/02/2017,10:00,33
15/02/2017,11:00,32
15/02/2017,12:00,28
15/02/2017,13:00,26
15/02/2017,14:00,19
15/02/2017,15:00,24
15/02/2017,16:00,18
15/02/2017,17:00,28
15/02/2017,18:00,38
15/02/2017,19:00,47
15/02/2017,20:00,45
15/02/2017,21:00,38
15/02/2017,22:00,30
15/02/2017,23:00,25
16/02/2017,00:00,16
16/02/2017,01:00,18
16/02/2017,02:00,22
16/02/2017,03:00,14
16/02/2017,04:00,14
16/02/2017,05:00,8
16/02/2017,06:00,17
16/02/2017,07:00,16
16/02/2017,08:00,15
16/02/2017,09:00,16
16/02/2017,10:00,16
16/02/2017,11:00,14
16/02/2017,12:00,14
16/02/2017,13:00,15
16/02/2017,14:00,13
16/02/2017,15:00,11
16/02/2017,16:00,11
16/02/2017,17:00,12
16/02/2017,18:00,12
16/02/2017,19:00,14
16/02/2017,20:00,19
16/02/2017,21:00,18
16/02/2017,22:00,12
16/02/2017,23:00,12
17/02/2017,00:00,14
17/02/2017,01:00,11
17/02/2017,02:00,14
17/02/2017,03:00,14
17/02/2017,04:00,12
17/02/2017,05:00,15
17/02/2017,06:00,10
17/02/2017,07:00,15
17/02/2017,08:00,17
17/02/2017,09:00,18
17/02/2017,10:00,16
17/02/2017,11:00,21
17/02/2017,12:00,24
17/02/2017,13:00,18
17/02/2017,14:00,19
17/02/2017,15:00,25
17/02/2017,16:00,18
17/02/2017,17:00,21
17/02/2017,18:00,28